SPOOQY-1 (44332 NORAD) Tracking and Keplerian Element Data

This shows tracking and keplerian element data for the satellite.

Feedback or suggestion? Click here.




ElementValue
Catalog44332
NameSPOOQY-1
Epoch Orbit938
Epoch Day228.74809511
Epoch Year2019
RAAN60.2336
Inclination51.641
Eccentricity0.0005454
Argument of Perigee308.5187
Mean Anonmoly51.5314
Mean Motion15.52608117
Decay Rate4.092E-05
L11 44332U 98067QH 19228.74809511 .00004092 00000-0 72791-4 0 9998
L22 44332 51.6410 60.2336 0005454 308.5187 51.5314 15.52608117 9380

Live tracking and technical data element details for SPOOQY-1 (NORAD 44332). SPOOQY-1 can be tracked NOW for your location showing map with azimuth and elevation plus other details from your city location.

Track the satellite on the map from your city or location and see movement details for azimuth, elevation, latitude, longitude, range, height, and movement on the map or in text.







IsCatalogInMostPopularTable: catalog: 44332, numindb: 11
Update: records affected: 1



GetName: 44332 SPOOQY-1

Hit Count: updated at: Tue, 20 Aug 2019 18:09:17 GMT